• In Belarus
  • List of Countries
  • For 7 days
  • Water Temperature
  • Weather Map
  • Weather Widgets
  • user-avatar
    Login

    Hourly Weather Malanje

    Today, 23 February, Sunday

    Time Temperature Precipitation Wind Pressure Humidity
    00:00 +21°C° 1 mm 1 mps 664 mmHg 96%
    01:00 +21°C° 0 mm 1 mps 664 mmHg 97%
    02:00 +21°C° 0.1 mm 1 mps 664 mmHg 97%
    03:00 +21°C° 0.1 mm 1 mps 664 mmHg 97%
    04:00 +21°C° 0.1 mm 1 mps 663 mmHg 97%
    05:00 +21°C° 0 mm 1 mps 664 mmHg 97%
    06:00 +21°C° 0 mm 1 mps 665 mmHg 97%
    07:00 +22°C° 0 mm 1 mps 665 mmHg 97%
    08:00 +23°C° 1.4 mm 2 mps 665 mmHg 95%
    09:00 +24°C° 1.4 mm 2 mps 666 mmHg 93%
    10:00 +24°C° 1.4 mm 3 mps 666 mmHg 91%
    11:00 +25°C° 1.1 mm 3 mps 666 mmHg 90%
    12:00 +25°C° 1.1 mm 3 mps 665 mmHg 88%
    13:00 +26°C° 0 mm 3 mps 665 mmHg 82%
    14:00 +26°C° 1.5 mm 3 mps 665 mmHg 86%
    15:00 +25°C° 1.5 mm 2 mps 664 mmHg 89%
    16:00 +24°C° 1.5 mm 2 mps 664 mmHg 93%
    17:00 +23°C° 0.7 mm 2 mps 664 mmHg 94%
    18:00 +21°C° 0.7 mm 2 mps 665 mmHg 95%
    19:00 +21°C° 0.7 mm 2 mps 665 mmHg 96%
    20:00 +20°C° 0 mm 2 mps 665 mmHg 96%
    21:00 +20°C° 0 mm 2 mps 665 mmHg 96%
    22:00 +20°C° 0 mm 1 mps 665 mmHg 96%
    23:00 +20°C° 0 mm 1 mps 665 mmHg 96%

    Tomorrow, 24 February, Monday

    Time Temperature Precipitation Wind Pressure Humidity
    00:00 +20°C° 0 mm 1 mps 665 mmHg 96%
    01:00 +20°C° 0 mm 1 mps 665 mmHg 96%
    02:00 +20°C° 0 mm 1 mps 664 mmHg 96%
    03:00 +20°C° 0 mm 1 mps 664 mmHg 96%
    04:00 +21°C° 0 mm 1 mps 664 mmHg 96%
    05:00 +21°C° 0 mm 1 mps 664 mmHg 96%
    06:00 +21°C° 0 mm 1 mps 665 mmHg 96%
    07:00 +21°C° 0 mm 1 mps 666 mmHg 95%
    08:00 +22°C° 0.2 mm 1 mps 666 mmHg 93%
    09:00 +23°C° 0.2 mm 1 mps 666 mmHg 91%
    10:00 +23°C° 0.2 mm 1 mps 667 mmHg 89%
    11:00 +24°C° 0.3 mm 1 mps 667 mmHg 88%
    12:00 +24°C° 0.3 mm 1 mps 666 mmHg 87%
    13:00 +25°C° 0.3 mm 1 mps 666 mmHg 85%
    14:00 +25°C° 0.4 mm 1 mps 666 mmHg 85%
    15:00 +25°C° 0.4 mm 1 mps 665 mmHg 84%
    16:00 +25°C° 0.4 mm 1 mps 665 mmHg 84%
    17:00 +24°C° 0.4 mm 1 mps 665 mmHg 87%
    18:00 +23°C° 0.4 mm 1 mps 665 mmHg 90%
    19:00 +21°C° 0.4 mm 1 mps 665 mmHg 94%
    20:00 +21°C° 0 mm 1 mps 665 mmHg 94%
    21:00 +21°C° 0 mm 1 mps 665 mmHg 95%
    22:00 +20°C° 0 mm 1 mps 665 mmHg 95%
    23:00 +20°C° 0 mm 1 mps 665 mmHg 96%

    Day after tomorrow, 25 February, Tuesday

    Time Temperature Precipitation Wind Pressure Humidity
    00:00 +20°C° 0 mm 1 mps 665 mmHg 96%
    01:00 +20°C° 0 mm 1 mps 664 mmHg 97%
    02:00 +20°C° 0 mm 1 mps 664 mmHg 97%
    03:00 +20°C° 0 mm 1 mps 664 mmHg 97%
    04:00 +20°C° 0 mm 1 mps 663 mmHg 97%
    05:00 +20°C° 0 mm 1 mps 664 mmHg 97%
    06:00 +19°C° 0 mm 0 mps 664 mmHg 96%
    07:00 +19°C° 0 mm 0 mps 665 mmHg 96%
    08:00 +20°C° 0 mm 0 mps 665 mmHg 91%
    09:00 +21°C° 0 mm 0 mps 665 mmHg 87%
    10:00 +25°C° 0 mm 1 mps 665 mmHg 82%
    11:00 +26°C° 0 mm 1 mps 665 mmHg 74%
    12:00 +28°C° 0 mm 1 mps 665 mmHg 66%
    13:00 +29°C° 0 mm 2 mps 665 mmHg 58%
    14:00 +29°C° 0.1 mm 2 mps 664 mmHg 62%
    15:00 +29°C° 0.1 mm 2 mps 664 mmHg 66%
    16:00 +28°C° 0.1 mm 2 mps 663 mmHg 70%
    17:00 +26°C° 0.3 mm 2 mps 663 mmHg 78%
    18:00 +24°C° 0.3 mm 2 mps 663 mmHg 86%
    19:00 +21°C° 0.3 mm 2 mps 663 mmHg 94%
    20:00 +21°C° 0.1 mm 2 mps 663 mmHg 94%
    21:00 +22°C° 0.1 mm 1 mps 664 mmHg 95%
    22:00 +21°C° 0.1 mm 1 mps 664 mmHg 96%
    23:00 +21°C° 0 mm 1 mps 664 mmHg 97%

    26 February, Wednesday

    Time Temperature Precipitation Wind Pressure Humidity
    00:00 +21°C° 0 mm 1 mps 664 mmHg 97%
    01:00 +21°C° 0 mm 1 mps 663 mmHg 98%
    02:00 +20°C° 0 mm 2 mps 663 mmHg 97%
    03:00 +20°C° 0 mm 2 mps 663 mmHg 97%
    04:00 +20°C° 0 mm 2 mps 663 mmHg 97%
    05:00 +20°C° 0 mm 2 mps 663 mmHg 96%
    06:00 +20°C° 0 mm 2 mps 664 mmHg 95%
    07:00 +20°C° 0 mm 2 mps 664 mmHg 95%
    08:00 +23°C° 0 mm 2 mps 665 mmHg 88%
    09:00 +24°C° 0 mm 2 mps 665 mmHg 82%
    10:00 +26°C° 0 mm 2 mps 666 mmHg 76%
    11:00 +26°C° 1.2 mm 2 mps 665 mmHg 77%
    12:00 +27°C° 1.2 mm 2 mps 664 mmHg 78%
    13:00 +27°C° 1.2 mm 1 mps 664 mmHg 80%
    14:00 +27°C° 1.1 mm 2 mps 663 mmHg 81%
    15:00 +27°C° 1.1 mm 2 mps 663 mmHg 82%
    16:00 +26°C° 1.1 mm 2 mps 662 mmHg 83%
    17:00 +25°C° 0.5 mm 2 mps 662 mmHg 87%
    18:00 +23°C° 0.5 mm 2 mps 663 mmHg 91%
    19:00 +21°C° 0.5 mm 2 mps 663 mmHg 94%
    20:00 +21°C° 0 mm 2 mps 663 mmHg 95%
    21:00 +20°C° 0 mm 2 mps 664 mmHg 95%
    22:00 +20°C° 0 mm 2 mps 664 mmHg 95%
    23:00 +20°C° 0 mm 2 mps 664 mmHg 95%

    27 February, Thursday

    Time Temperature Precipitation Wind Pressure Humidity
    00:00 +20°C° 0 mm 1 mps 663 mmHg 96%
    01:00 +20°C° 0 mm 1 mps 663 mmHg 97%
    02:00 +20°C° 0 mm 1 mps 663 mmHg 97%
    03:00 +20°C° 0 mm 1 mps 663 mmHg 98%
    04:00 +19°C° 0 mm 1 mps 663 mmHg 99%
    05:00 +20°C° 0 mm 1 mps 663 mmHg 98%
    06:00 +19°C° 0 mm 2 mps 664 mmHg 97%
    07:00 +19°C° 0 mm 2 mps 664 mmHg 97%
    08:00 +22°C° 0 mm 1 mps 665 mmHg 88%
    09:00 +24°C° 0 mm 1 mps 666 mmHg 79%
    10:00 +26°C° 0 mm 1 mps 666 mmHg 70%
    11:00 +27°C° 0 mm 1 mps 666 mmHg 65%
    12:00 +28°C° 0 mm 1 mps 665 mmHg 61%
    13:00 +29°C° 0 mm 1 mps 665 mmHg 56%
    14:00 +29°C° 0 mm 2 mps 664 mmHg 59%
    15:00 +29°C° 0 mm 2 mps 664 mmHg 62%
    16:00 +28°C° 0 mm 2 mps 663 mmHg 65%
    17:00 +26°C° 0.1 mm 2 mps 664 mmHg 72%
    18:00 +24°C° 0.1 mm 1 mps 664 mmHg 79%
    19:00 +22°C° 0.1 mm 1 mps 664 mmHg 86%
    20:00 +22°C° 0.1 mm 1 mps 664 mmHg 88%
    21:00 +22°C° 0.1 mm 1 mps 665 mmHg 90%
    22:00 +21°C° 0.1 mm 1 mps 665 mmHg 92%
    23:00 +21°C° 0 mm 1 mps 665 mmHg 93%

    28 February, Friday

    Time Temperature Precipitation Wind Pressure Humidity
    00:00 +21°C° 0 mm 1 mps 665 mmHg 94%
    01:00 +21°C° 0 mm 1 mps 665 mmHg 95%
    02:00 +19°C° 0 mm 0 mps 664 mmHg 96%
    03:00 +18°C° 0 mm 0 mps 664 mmHg 97%
    04:00 +18°C° 0 mm 0 mps 664 mmHg 98%
    05:00 +18°C° 0.1 mm 0 mps 664 mmHg 97%
    06:00 +19°C° 0.1 mm 0 mps 665 mmHg 96%
    07:00 +19°C° 0.1 mm 0 mps 666 mmHg 95%
    08:00 +23°C° 0.1 mm 1 mps 666 mmHg 88%
    09:00 +25°C° 0.1 mm 1 mps 667 mmHg 82%
    10:00 +26°C° 0.1 mm 1 mps 667 mmHg 75%
    11:00 +28°C° 0.5 mm 1 mps 667 mmHg 69%
    12:00 +29°C° 0.5 mm 1 mps 667 mmHg 62%
    13:00 +30°C° 0.5 mm 2 mps 666 mmHg 56%
    14:00 +30°C° 0.1 mm 2 mps 665 mmHg 60%
    15:00 +29°C° 0.1 mm 2 mps 665 mmHg 63%
    16:00 +29°C° 0.1 mm 2 mps 664 mmHg 67%
    17:00 +27°C° 0.4 mm 1 mps 664 mmHg 75%
    18:00 +25°C° 0.4 mm 1 mps 664 mmHg 82%
    19:00 +23°C° 0.4 mm 1 mps 664 mmHg 90%
    20:00 +22°C° 0 mm 1 mps 664 mmHg 91%
    21:00 +20°C° 0 mm 0 mps 664 mmHg 92%
    22:00 +19°C° 0 mm 0 mps 665 mmHg 93%
    23:00 +19°C° 0 mm 0 mps 664 mmHg 93%
    Show more